Regional Weather Roundup
Issued by NWS

Home | Current Version | Previous Version | Text Only | Print | Product List | Glossary On
Versions: 1 2 3 4 5 6 7 8 9 10 11 12 13 14 15 16 17 18 19 20 21 22 23 24 25 26 27 28 29 30 31 32 33 34 35 36 37 38 39 40 41 42 43 44 45 46 47 48 49 50
000
ASUS45 KREV 181510
RWRNV
NEVADA REGIONAL WEATHER ROUNDUP
NATIONAL WEATHER SERVICE RENO NV
800 AM PDT WED OCT 18 2017

NOTE: "FAIR" INDICATES FEW OR NO CLOUDS BELOW 12,000 FEET WITH NO
SIGNIFICANT WEATHER AND/OR OBSTRUCTIONS TO VISIBILITY.

NVZ001-003-004-181600-
WESTERN NEVADA

CITY           SKY/WX    TMP DP  RH WIND       PRES   REMARKS
RENO           PTCLDY    36  21  54 S3        30.22R
CARSON CITY    FAIR      32  18  55 CALM      30.24R
MINDEN         FAIR      27  18  69 CALM      30.23S
FALLON         PTCLDY    35  14  42 CALM      30.18R
LOVELOCK       PTCLDY    27  15  61 N3        30.19R
HAWTHORNE      CLEAR     45  18  33 SW5       30.20R
$$

NVZ002-CAZ072-073-181600-
NORTHERN AND CENTRAL SIERRA

CITY           SKY/WX    TMP DP  RH WIND       PRES   REMARKS
S. LAKE TAHOE  CLEAR     26  18  71 CALM      30.27S
TRUCKEE        CLEAR     21  16  79 CALM      30.28R
SQUAW VLY 8000   N/A     45  10  24 SW2         N/A
SUSANVILLE     CLEAR     34  19  55 W3        30.20R
BLUE CANYON    CLEAR     60  16  18 SE5       30.20R
MAMMOTH LAKES  FAIR      31  23  72 N6        30.31S
BRIDGEPORT     FAIR      25  14  63 CALM      30.28S
$$

NVZ030-031-036-181600-
NORTHERN NEVADA

CITY           SKY/WX    TMP DP  RH WIND       PRES   REMARKS
ELKO           CLOUDY    27  16  63 CALM      30.25R
WINNEMUCCA     MOCLDY    32   9  38 CALM      30.20R
WENDOVER         N/A    N/A N/A N/A MISG        N/A
$$

NVZ035-037-181600-
CENTRAL NEVADA

CITY           SKY/WX    TMP DP  RH WIND       PRES   REMARKS
ELY            MOSUNNY   33   3  28 S7        30.28R
EUREKA           N/A     34   8  33 S9        30.25S
$$

NVZ013-014-181600-
SOUTH CENTRAL NEVADA

CITY           SKY/WX    TMP DP  RH WIND       PRES   REMARKS
TONOPAH        PTSUNNY   44  11  26 N13       30.23R
$$

NVZ017-020-022-181600-
SOUTHERN NEVADA

CITY           SKY/WX    TMP DP  RH WIND       PRES   REMARKS
LAS VEGAS      PTSUNNY   63  19  18 CALM      30.03R
N. LAS VEGAS   PTSUNNY   63  16  16 N6        30.03R
NELLIS AFB     CLOUDY    57  11  16 CALM      30.02R
HENDERSON      MOSUNNY   60  13  15 S9        30.05R
MERCURY        PTSUNNY   56  10  16 CALM      30.07R
$$



USA.gov is the U.S. government's official web portal to all federal, state and local government web resources and services.